Flag for El Salvador Weather past 2 weeks in Santa Ana, El Salvador

Now
75 °F

Passing clouds.


Feels Like: 75 °F
Forecast: 65 / 88 °F
Wind: No wind

Location: San Salvador / Ilopango

Current Time: Aug 1, 2014 at 3:34:17 AM

Latest Report: Jul 31, 2014 at 11:50 PM


Visibility: N/A

Pressure: 29.98 "Hg

Humidity: 89%

Dew point: 72 °F

Location of Santa AnaLocation

Historic Weather in Santa Ana — Graph

°F

Santa Ana temperature yesterday

Maximum temperature yesterday: 90 °F (at 12:50 PM)
Minimum temperature yesterday: 70 °F (at 5:50 AM)
Average temperature yesterday: 81 °F

Past Weeks' High & Low Weather Summary

 TemperatureHumidityPressure
High91 °F (Jul 21, 1:50 PM)100% (Jul 21, 10:50 PM)30.07 "Hg (Jul 21, 10:50 PM)
Low68 °F (Jul 27, 5:50 AM)49% (Jul 20, 12:50 PM)29.80 "Hg (Jul 29, 6:50 PM)
Average81 °F76%29.98 "Hg
* Reported Jul 16 11:50 PM — Jul 31 11:50 PM, Santa Ana, Weather by CustomWeather, © 2014

Note: Actual official high and low records may vary slightly from our data, if they occured in-between our weather recording intervals... More about our weather records

Advertising

Santa Ana weather history for previous 24 hours

 ConditionsComfort  
Time TempWeatherWind HumidityBarometerVisibility
11:50 PM
Jul 31
75 °FPassing clouds.No wind89%29.98 "HgN/A
10:50 PM75 °FPassing clouds.3 mph89%29.98 "HgN/A
9:50 PM77 °FThundershowers. Passing clouds.No wind89%29.98 "HgN/A
8:50 PM77 °FPassing clouds.6 mph89%29.98 "HgN/A
7:50 PM77 °FPassing clouds.7 mph89%29.95 "HgN/A
6:50 PM79 °FPassing clouds.7 mph84%29.92 "HgN/A
5:50 PM82 °FPassing clouds.9 mph74%29.92 "HgN/A
4:50 PM84 °FSunny.9 mph74%29.92 "Hg10 mi
3:50 PM90 °FPassing clouds.7 mph52%29.95 "HgN/A
2:50 PM90 °FPassing clouds.7 mph55%29.95 "HgN/A
1:50 PM90 °FPassing clouds.2 mph59%29.98 "HgN/A
12:50 PM90 °FSunny.7 mph59%29.98 "Hg10 mi
11:50 AM88 °FSunny.7 mph59%29.98 "Hg10 mi
10:50 AM84 °FSunny.7 mph70%29.98 "Hg10 mi
9:50 AM81 °FSunny.9 mph74%30.01 "Hg10 mi
8:50 AM79 °FSunny.12 mph74%29.98 "Hg10 mi
7:50 AM75 °FSunny.9 mph74%30.01 "Hg10 mi
6:50 AM72 °FSunny.9 mph83%30.01 "Hg10 mi
5:50 AM70 °FSunny.9 mph88%29.98 "Hg10 mi
Weather by CustomWeather, © 2014

See weather overviewHow to use our weather pages